User: anonymous   Login
Location: Linz
(48.3300°N, 14.3000°E)
Time: 20:01:27
(UTC+01:00)
Language:

N. Korean satellite - Orbit

View from above orbital plane
View from above orbital plane
View from above satellite
View from above satellite

Ground track
Ground track

The orbit data is extracted from the following two-line orbital elements,

1 39026U 12072A   18019.48608781  .00001184  00000-0  47295-4 0  9998
2 39026  97.2148  34.9255 0041096 129.1421 231.3482 15.26290281282978
Epoch (UTC): 19 January 2018 11:39:57
Eccentricity: 0.0041096
inclination: 97.2148°
perigee height: 459 km
apogee height: 515 km
right ascension of ascending node: 34.9255°
argument of perigee: 129.1421°
revolutions per day: 15.26290281
mean anomaly at epoch: 231.3482°
orbit number at epoch: 28297

The dashed part of the orbit path shows where the satellite is in the earth's shadow,  

DLR